owner,sensor,date,latitude,longitude,vertical_datum,wind_speed,wind_to_direction,wind_speed_of_gust,qcFlag 
ADCP,ioos:station:wmo:42361:1,2016-12-01T00:30:00Z,27.5500,-92.4900,122.0,13.1,349.0,99.0,'11111222,11111222,11144222' 
ADCP,ioos:station:wmo:42361:1,2016-12-01T01:30:00Z,27.5500,-92.4900,122.0,12.8,354.0,99.0,'11111222,11111222,11144222' 
ADCP,ioos:station:wmo:42361:1,2016-12-01T02:30:00Z,27.5500,-92.4900,122.0,12.4,359.0,99.0,'11111222,11111222,11144222' 
ADCP,ioos:station:wmo:42361:1,2016-12-01T03:30:00Z,27.5500,-92.4900,122.0,12.6,1.0,99.0,'11111222,11111222,11144222' 
ADCP,ioos:station:wmo:42361:1,2016-12-01T04:30:00Z,27.5500,-92.4900,122.0,12.7,3.0,99.0,'11111222,11111222,11144222' 
ADCP,ioos:station:wmo:42361:1,2016-12-01T05:30:00Z,27.5500,-92.4900,122.0,11.9,7.0,99.0,'11111222,11111222,11144222' 
ADCP,ioos:station:wmo:42361:1,2016-12-01T06:30:00Z,27.5500,-92.4900,122.0,11.6,5.0,99.0,'11111222,11111222,11144222' 
ADCP,ioos:station:wmo:42361:1,2016-12-01T07:30:00Z,27.5500,-92.4900,122.0,11.4,3.0,99.0,'11111222,11111222,11144222' 
ADCP,ioos:station:wmo:42361:1,2016-12-01T08:30:00Z,27.5500,-92.4900,122.0,11.5,7.0,99.0,'11111222,11111222,11144222' 
ADCP,ioos:station:wmo:42361:1,2016-12-01T09:30:00Z,27.5500,-92.4900,122.0,11.3,10.0,99.0,'11111222,11111222,11144222' 
ADCP,ioos:station:wmo:42361:1,2016-12-01T10:30:00Z,27.5500,-92.4900,122.0,11.7,10.0,99.0,'11111222,11111222,11144222' 
ADCP,ioos:station:wmo:42361:1,2016-12-01T11:30:00Z,27.5500,-92.4900,122.0,12.0,13.0,99.0,'11111222,11111222,11144222' 
ADCP,ioos:station:wmo:42361:1,2016-12-01T12:30:00Z,27.5500,-92.4900,122.0,12.1,17.0,99.0,'11111222,11111222,11144222' 
ADCP,ioos:station:wmo:42361:1,2016-12-01T13:30:00Z,27.5500,-92.4900,122.0,12.6,21.0,99.0,'11111222,11111222,11144222' 
ADCP,ioos:station:wmo:42361:1,2016-12-01T14:30:00Z,27.5500,-92.4900,122.0,12.6,23.0,99.0,'11111222,11111222,11144222' 
ADCP,ioos:station:wmo:42361:1,2016-12-01T15:30:00Z,27.5500,-92.4900,122.0,12.4,26.0,99.0,'11111222,11111222,11144222' 
ADCP,ioos:station:wmo:42361:1,2016-12-01T16:30:00Z,27.5500,-92.4900,122.0,11.2,28.0,99.0,'11111222,11111222,11144222' 
ADCP,ioos:station:wmo:42361:1,2016-12-01T17:30:00Z,27.5500,-92.4900,122.0,10.8,27.0,99.0,'11111222,11111222,11144222' 
ADCP,ioos:station:wmo:42361:1,2016-12-01T18:30:00Z,27.5500,-92.4900,122.0,10.5,34.0,99.0,'11111222,11111222,11144222' 
ADCP,ioos:station:wmo:42361:1,2016-12-01T19:30:00Z,27.5500,-92.4900,122.0,10.5,40.0,99.0,'11111222,11111222,11144222' 
ADCP,ioos:station:wmo:42361:1,2016-12-01T20:30:00Z,27.5500,-92.4900,122.0,10.2,39.0,99.0,'11111222,11111222,11144222' 
ADCP,ioos:station:wmo:42361:1,2016-12-01T21:30:00Z,27.5500,-92.4900,122.0,10.2,44.0,99.0,'11111222,11111222,11144222' 
ADCP,ioos:station:wmo:42361:1,2016-12-01T22:30:00Z,27.5500,-92.4900,122.0,9.8,49.0,99.0,'11111222,11111222,11144222' 
ADCP,ioos:station:wmo:42361:1,2016-12-01T23:30:00Z,27.5500,-92.4900,122.0,10.0,50.0,99.0,'11111222,11111222,11144222' 
ADCP,ioos:station:wmo:42361:1,2016-12-02T00:30:00Z,27.5500,-92.4900,122.0,10.3,64.0,99.0,'11111222,11111222,11144222' 
ADCP,ioos:station:wmo:42361:1,2016-12-02T01:30:00Z,27.5500,-92.4900,122.0,9.2,54.0,99.0,'11111222,11111222,11144222' 
ADCP,ioos:station:wmo:42361:1,2016-12-02T02:30:00Z,27.5500,-92.4900,122.0,10.3,56.0,99.0,'11111222,11111222,11144222' 
ADCP,ioos:station:wmo:42361:1,2016-12-02T03:30:00Z,27.5500,-92.4900,122.0,10.5,61.0,99.0,'11111222,11111222,11144222' 
ADCP,ioos:station:wmo:42361:1,2016-12-02T04:30:00Z,27.5500,-92.4900,122.0,11.2,72.0,99.0,'11111222,11111222,11144222' 
ADCP,ioos:station:wmo:42361:1,2016-12-02T05:30:00Z,27.5500,-92.4900,122.0,11.1,71.0,99.0,'11111222,11111222,11144222' 
ADCP,ioos:station:wmo:42361:1,2016-12-02T06:30:00Z,27.5500,-92.4900,122.0,10.5,70.0,99.0,'11111222,11111222,11144222' 
ADCP,ioos:station:wmo:42361:1,2016-12-02T07:30:00Z,27.5500,-92.4900,122.0,10.0,70.0,99.0,'11111222,11111222,11144222' 
ADCP,ioos:station:wmo:42361:1,2016-12-02T08:30:00Z,27.5500,-92.4900,122.0,10.8,74.0,99.0,'11111222,11111222,11144222' 
ADCP,ioos:station:wmo:42361:1,2016-12-02T09:30:00Z,27.5500,-92.4900,122.0,10.5,75.0,99.0,'11111222,11111222,11144222' 
ADCP,ioos:station:wmo:42361:1,2016-12-02T10:30:00Z,27.5500,-92.4900,122.0,10.2,73.0,99.0,'11111222,11111222,11144222' 
ADCP,ioos:station:wmo:42361:1,2016-12-02T11:30:00Z,27.5500,-92.4900,122.0,11.5,70.0,99.0,'11111222,11111222,11144222' 
ADCP,ioos:station:wmo:42361:1,2016-12-02T12:30:00Z,27.5500,-92.4900,122.0,12.2,69.0,99.0,'11111222,11111222,11144222' 
ADCP,ioos:station:wmo:42361:1,2016-12-02T13:30:00Z,27.5500,-92.4900,122.0,12.8,67.0,99.0,'11111222,11111222,11144222' 
ADCP,ioos:station:wmo:42361:1,2016-12-02T14:30:00Z,27.5500,-92.4900,122.0,13.4,68.0,99.0,'11111222,11111222,11144222' 
ADCP,ioos:station:wmo:42361:1,2016-12-02T15:30:00Z,27.5500,-92.4900,122.0,14.2,67.0,99.0,'11111222,11111222,11144222' 
ADCP,ioos:station:wmo:42361:1,2016-12-02T16:30:00Z,27.5500,-92.4900,122.0,14.8,70.0,99.0,'11111222,11111222,11144222' 
ADCP,ioos:station:wmo:42361:1,2016-12-02T17:30:00Z,27.5500,-92.4900,122.0,15.1,71.0,99.0,'11111222,11111222,11144222' 
ADCP,ioos:station:wmo:42361:1,2016-12-02T18:30:00Z,27.5500,-92.4900,122.0,15.8,73.0,99.0,'11111222,11111222,11144222' 
ADCP,ioos:station:wmo:42361:1,2016-12-02T19:30:00Z,27.5500,-92.4900,122.0,15.7,80.0,99.0,'11111222,11111222,11144222' 
ADCP,ioos:station:wmo:42361:1,2016-12-02T20:30:00Z,27.5500,-92.4900,122.0,15.9,79.0,99.0,'11111222,11111222,11144222' 
ADCP,ioos:station:wmo:42361:1,2016-12-02T21:30:00Z,27.5500,-92.4900,122.0,99.0,-9999.0,99.0,'11144222,99999999,11144222' 
ADCP,ioos:station:wmo:42361:1,2016-12-02T22:30:00Z,27.5500,-92.4900,122.0,99.0,-9999.0,99.0,'11144222,99999999,11144222' 
ADCP,ioos:station:wmo:42361:1,2016-12-02T23:30:00Z,27.5500,-92.4900,122.0,99.0,-9999.0,99.0,'11144222,99999999,11144222' 
ADCP,ioos:station:wmo:42361:1,2016-12-03T00:30:00Z,27.5500,-92.4900,122.0,99.0,-9999.0,99.0,'11144222,99999999,11144222' 
ADCP,ioos:station:wmo:42361:1,2016-12-03T01:30:00Z,27.5500,-92.4900,122.0,99.0,-9999.0,99.0,'11144222,99999999,11144222' 
ADCP,ioos:station:wmo:42361:1,2016-12-03T02:30:00Z,27.5500,-92.4900,122.0,12.7,77.0,99.0,'11111222,11111222,11144222' 
ADCP,ioos:station:wmo:42361:1,2016-12-03T03:30:00Z,27.5500,-92.4900,122.0,12.6,88.0,99.0,'11111222,11111222,11144222' 
ADCP,ioos:station:wmo:42361:1,2016-12-03T04:30:00Z,27.5500,-92.4900,122.0,12.5,87.0,99.0,'11111222,11111222,11144222' 
ADCP,ioos:station:wmo:42361:1,2016-12-03T05:30:00Z,27.5500,-92.4900,122.0,16.6,91.0,99.0,'11111222,11111222,11144222' 
ADCP,ioos:station:wmo:42361:1,2016-12-03T06:30:00Z,27.5500,-92.4900,122.0,16.9,91.0,99.0,'11111222,11111222,11144222' 
ADCP,ioos:station:wmo:42361:1,2016-12-03T07:30:00Z,27.5500,-92.4900,122.0,17.1,92.0,99.0,'11111222,11111222,11144222' 
ADCP,ioos:station:wmo:42361:1,2016-12-03T08:30:00Z,27.5500,-92.4900,122.0,16.3,91.0,99.0,'11111222,11111222,11144222' 
ADCP,ioos:station:wmo:42361:1,2016-12-03T09:30:00Z,27.5500,-92.4900,122.0,16.6,96.0,99.0,'11111222,11111222,11144222' 
ADCP,ioos:station:wmo:42361:1,2016-12-03T10:30:00Z,27.5500,-92.4900,122.0,16.4,100.0,99.0,'11111222,11111222,11144222' 
ADCP,ioos:station:wmo:42361:1,2016-12-03T11:30:00Z,27.5500,-92.4900,122.0,16.1,100.0,99.0,'11111222,11111222,11144222' 
ADCP,ioos:station:wmo:42361:1,2016-12-03T12:30:00Z,27.5500,-92.4900,122.0,16.4,101.0,99.0,'11111222,11111222,11144222' 
ADCP,ioos:station:wmo:42361:1,2016-12-03T13:30:00Z,27.5500,-92.4900,122.0,16.3,101.0,99.0,'11111222,11111222,11144222' 
ADCP,ioos:station:wmo:42361:1,2016-12-03T14:30:00Z,27.5500,-92.4900,122.0,15.7,110.0,99.0,'11111222,11111222,11144222' 
ADCP,ioos:station:wmo:42361:1,2016-12-03T15:30:00Z,27.5500,-92.4900,122.0,14.7,110.0,99.0,'11111222,11111222,11144222' 
ADCP,ioos:station:wmo:42361:1,2016-12-03T16:30:00Z,27.5500,-92.4900,122.0,13.6,112.0,99.0,'11111222,11111222,11144222' 
ADCP,ioos:station:wmo:42361:1,2016-12-03T17:30:00Z,27.5500,-92.4900,122.0,13.6,115.0,99.0,'11111222,11111222,11144222' 
ADCP,ioos:station:wmo:42361:1,2016-12-03T18:30:00Z,27.5500,-92.4900,122.0,15.2,120.0,99.0,'11111222,11111222,11144222' 
ADCP,ioos:station:wmo:42361:1,2016-12-03T19:30:00Z,27.5500,-92.4900,122.0,15.1,120.0,99.0,'11111222,11111222,11144222' 
ADCP,ioos:station:wmo:42361:1,2016-12-03T20:30:00Z,27.5500,-92.4900,122.0,13.7,121.0,99.0,'11111222,11111222,11144222' 
ADCP,ioos:station:wmo:42361:1,2016-12-03T21:30:00Z,27.5500,-92.4900,122.0,12.2,121.0,99.0,'11111222,11111222,11144222' 
ADCP,ioos:station:wmo:42361:1,2016-12-03T22:30:00Z,27.5500,-92.4900,122.0,11.8,119.0,99.0,'11111222,11111222,11144222' 
ADCP,ioos:station:wmo:42361:1,2016-12-03T23:30:00Z,27.5500,-92.4900,122.0,13.0,115.0,99.0,'11111222,11111222,11144222' 
ADCP,ioos:station:wmo:42361:1,2016-12-04T00:30:00Z,27.5500,-92.4900,122.0,13.0,120.0,99.0,'11111222,11111222,11144222' 
ADCP,ioos:station:wmo:42361:1,2016-12-04T01:30:00Z,27.5500,-92.4900,122.0,12.8,111.0,99.0,'11111222,11111222,11144222' 
ADCP,ioos:station:wmo:42361:1,2016-12-04T02:30:00Z,27.5500,-92.4900,122.0,12.7,110.0,99.0,'11111222,11111222,11144222' 
ADCP,ioos:station:wmo:42361:1,2016-12-04T03:30:00Z,27.5500,-92.4900,122.0,12.5,119.0,99.0,'11111222,11111222,11144222' 
ADCP,ioos:station:wmo:42361:1,2016-12-04T04:30:00Z,27.5500,-92.4900,122.0,12.4,126.0,99.0,'11111222,11111222,11144222' 
ADCP,ioos:station:wmo:42361:1,2016-12-04T05:30:00Z,27.5500,-92.4900,122.0,11.3,131.0,99.0,'11111222,11111222,11144222' 
ADCP,ioos:station:wmo:42361:1,2016-12-04T06:30:00Z,27.5500,-92.4900,122.0,10.6,140.0,99.0,'11111222,11111222,11144222' 
ADCP,ioos:station:wmo:42361:1,2016-12-04T07:30:00Z,27.5500,-92.4900,122.0,11.0,141.0,99.0,'11111222,11111222,11144222' 
ADCP,ioos:station:wmo:42361:1,2016-12-04T08:30:00Z,27.5500,-92.4900,122.0,10.2,143.0,99.0,'11111222,11111222,11144222' 
ADCP,ioos:station:wmo:42361:1,2016-12-04T09:30:00Z,27.5500,-92.4900,122.0,9.9,140.0,99.0,'11111222,11111222,11144222' 
ADCP,ioos:station:wmo:42361:1,2016-12-04T10:30:00Z,27.5500,-92.4900,122.0,9.6,135.0,99.0,'11111222,11111222,11144222' 
ADCP,ioos:station:wmo:42361:1,2016-12-04T11:30:00Z,27.5500,-92.4900,122.0,10.2,138.0,99.0,'11111222,11111222,11144222' 
ADCP,ioos:station:wmo:42361:1,2016-12-04T12:30:00Z,27.5500,-92.4900,122.0,11.0,146.0,99.0,'11111222,11111222,11144222' 
ADCP,ioos:station:wmo:42361:1,2016-12-04T13:30:00Z,27.5500,-92.4900,122.0,10.3,150.0,99.0,'11111222,11111222,11144222' 
ADCP,ioos:station:wmo:42361:1,2016-12-04T14:30:00Z,27.5500,-92.4900,122.0,9.7,150.0,99.0,'11111222,11111222,11144222' 
ADCP,ioos:station:wmo:42361:1,2016-12-04T15:30:00Z,27.5500,-92.4900,122.0,8.2,152.0,99.0,'11111222,11111222,11144222' 
ADCP,ioos:station:wmo:42361:1,2016-12-04T16:30:00Z,27.5500,-92.4900,122.0,8.3,151.0,99.0,'11111222,11111222,11144222' 
ADCP,ioos:station:wmo:42361:1,2016-12-04T17:30:00Z,27.5500,-92.4900,122.0,7.9,141.0,99.0,'11111222,11111222,11144222' 
ADCP,ioos:station:wmo:42361:1,2016-12-04T18:30:00Z,27.5500,-92.4900,122.0,7.9,140.0,99.0,'11111222,11111222,11144222' 
ADCP,ioos:station:wmo:42361:1,2016-12-04T19:30:00Z,27.5500,-92.4900,122.0,9.4,140.0,99.0,'11111222,11111222,11144222' 
ADCP,ioos:station:wmo:42361:1,2016-12-04T20:30:00Z,27.5500,-92.4900,122.0,9.6,150.0,99.0,'11111222,11111222,11144222' 
ADCP,ioos:station:wmo:42361:1,2016-12-04T21:30:00Z,27.5500,-92.4900,122.0,9.4,159.0,99.0,'11111222,11111222,11144222' 
ADCP,ioos:station:wmo:42361:1,2016-12-04T22:30:00Z,27.5500,-92.4900,122.0,7.6,175.0,99.0,'11111222,11111222,11144222' 
ADCP,ioos:station:wmo:42361:1,2016-12-04T23:30:00Z,27.5500,-92.4900,122.0,20.8,340.0,99.0,'11111222,11111222,11144222' 
ADCP,ioos:station:wmo:42361:1,2016-12-05T00:30:00Z,27.5500,-92.4900,122.0,20.4,353.0,99.0,'11111222,11111222,11144222' 
ADCP,ioos:station:wmo:42361:1,2016-12-05T01:30:00Z,27.5500,-92.4900,122.0,20.5,2.0,99.0,'11111222,11111222,11144222' 
ADCP,ioos:station:wmo:42361:1,2016-12-05T02:30:00Z,27.5500,-92.4900,122.0,19.8,14.0,99.0,'11111222,11111222,11144222' 
ADCP,ioos:station:wmo:42361:1,2016-12-05T03:30:00Z,27.5500,-92.4900,122.0,17.7,28.0,99.0,'11111222,11111222,11144222' 
ADCP,ioos:station:wmo:42361:1,2016-12-05T04:30:00Z,27.5500,-92.4900,122.0,16.7,51.0,99.0,'11111222,11111222,11144222' 
ADCP,ioos:station:wmo:42361:1,2016-12-05T05:30:00Z,27.5500,-92.4900,122.0,16.7,66.0,99.0,'11111222,11111222,11144222' 
ADCP,ioos:station:wmo:42361:1,2016-12-05T06:30:00Z,27.5500,-92.4900,122.0,15.3,70.0,99.0,'11111222,11111222,11144222' 
ADCP,ioos:station:wmo:42361:1,2016-12-05T07:30:00Z,27.5500,-92.4900,122.0,14.8,77.0,99.0,'11111222,11111222,11144222' 
ADCP,ioos:station:wmo:42361:1,2016-12-05T08:30:00Z,27.5500,-92.4900,122.0,11.5,77.0,99.0,'11111222,11111222,11144222' 
ADCP,ioos:station:wmo:42361:1,2016-12-05T09:30:00Z,27.5500,-92.4900,122.0,10.2,90.0,99.0,'11111222,11111222,11144222' 
ADCP,ioos:station:wmo:42361:1,2016-12-05T10:30:00Z,27.5500,-92.4900,122.0,9.6,123.0,99.0,'11111222,11111222,11144222' 
ADCP,ioos:station:wmo:42361:1,2016-12-05T11:30:00Z,27.5500,-92.4900,122.0,10.5,124.0,99.0,'11111222,11111222,11144222' 
ADCP,ioos:station:wmo:42361:1,2016-12-05T12:30:00Z,27.5500,-92.4900,122.0,10.7,130.0,99.0,'11111222,11111222,11144222' 
ADCP,ioos:station:wmo:42361:1,2016-12-05T13:30:00Z,27.5500,-92.4900,122.0,9.9,139.0,99.0,'11111222,11111222,11144222' 
ADCP,ioos:station:wmo:42361:1,2016-12-05T14:30:00Z,27.5500,-92.4900,122.0,9.9,148.0,99.0,'11111222,11111222,11144222' 
ADCP,ioos:station:wmo:42361:1,2016-12-05T15:30:00Z,27.5500,-92.4900,122.0,9.7,157.0,99.0,'11111222,11111222,11144222' 
ADCP,ioos:station:wmo:42361:1,2016-12-05T16:30:00Z,27.5500,-92.4900,122.0,8.9,160.0,99.0,'11111222,11111222,11144222' 
ADCP,ioos:station:wmo:42361:1,2016-12-05T17:30:00Z,27.5500,-92.4900,122.0,9.6,163.0,99.0,'11111222,11111222,11144222' 
ADCP,ioos:station:wmo:42361:1,2016-12-05T18:30:00Z,27.5500,-92.4900,122.0,9.2,174.0,99.0,'11111222,11111222,11144222' 
ADCP,ioos:station:wmo:42361:1,2016-12-05T19:30:00Z,27.5500,-92.4900,122.0,8.0,190.0,99.0,'11111222,11111222,11144222' 
ADCP,ioos:station:wmo:42361:1,2016-12-05T20:30:00Z,27.5500,-92.4900,122.0,7.1,213.0,99.0,'11111222,11111222,11144222' 
ADCP,ioos:station:wmo:42361:1,2016-12-05T21:30:00Z,27.5500,-92.4900,122.0,8.4,215.0,99.0,'11111222,11111222,11144222' 
ADCP,ioos:station:wmo:42361:1,2016-12-05T22:30:00Z,27.5500,-92.4900,122.0,9.0,240.0,99.0,'11111222,11111222,11144222' 
ADCP,ioos:station:wmo:42361:1,2016-12-05T23:30:00Z,27.5500,-92.4900,122.0,9.0,245.0,99.0,'11111222,11111222,11144222' 
ADCP,ioos:station:wmo:42361:1,2016-12-06T00:30:00Z,27.5500,-92.4900,122.0,10.5,249.0,99.0,'11111222,11111222,11144222' 
ADCP,ioos:station:wmo:42361:1,2016-12-06T01:30:00Z,27.5500,-92.4900,122.0,11.7,260.0,99.0,'11111222,11111222,11144222' 
ADCP,ioos:station:wmo:42361:1,2016-12-06T02:30:00Z,27.5500,-92.4900,122.0,10.7,259.0,99.0,'11111222,11111222,11144222' 
ADCP,ioos:station:wmo:42361:1,2016-12-06T03:30:00Z,27.5500,-92.4900,122.0,8.7,259.0,99.0,'11111222,11111222,11144222' 
ADCP,ioos:station:wmo:42361:1,2016-12-06T04:30:00Z,27.5500,-92.4900,122.0,8.9,260.0,99.0,'11111222,11111222,11144222' 
ADCP,ioos:station:wmo:42361:1,2016-12-06T05:30:00Z,27.5500,-92.4900,122.0,10.1,260.0,99.0,'11111222,11111222,11144222' 
ADCP,ioos:station:wmo:42361:1,2016-12-06T06:30:00Z,27.5500,-92.4900,122.0,8.6,261.0,99.0,'11111222,11111222,11144222' 
ADCP,ioos:station:wmo:42361:1,2016-12-06T07:30:00Z,27.5500,-92.4900,122.0,9.2,260.0,99.0,'11111222,11111222,11144222' 
ADCP,ioos:station:wmo:42361:1,2016-12-06T08:30:00Z,27.5500,-92.4900,122.0,9.9,260.0,99.0,'11111222,11111222,11144222' 
ADCP,ioos:station:wmo:42361:1,2016-12-06T09:30:00Z,27.5500,-92.4900,122.0,9.5,260.0,99.0,'11111222,11111222,11144222' 
ADCP,ioos:station:wmo:42361:1,2016-12-06T10:30:00Z,27.5500,-92.4900,122.0,9.7,261.0,99.0,'11111222,11111222,11144222' 
ADCP,ioos:station:wmo:42361:1,2016-12-06T11:30:00Z,27.5500,-92.4900,122.0,9.6,265.0,99.0,'11111222,11111222,11144222' 
ADCP,ioos:station:wmo:42361:1,2016-12-06T12:30:00Z,27.5500,-92.4900,122.0,8.0,264.0,99.0,'11111222,11111222,11144222' 
ADCP,ioos:station:wmo:42361:1,2016-12-06T13:30:00Z,27.5500,-92.4900,122.0,7.4,262.0,99.0,'11111222,11111222,11144222' 
ADCP,ioos:station:wmo:42361:1,2016-12-06T14:30:00Z,27.5500,-92.4900,122.0,6.2,265.0,99.0,'11111222,11111222,11144222' 
ADCP,ioos:station:wmo:42361:1,2016-12-06T15:30:00Z,27.5500,-92.4900,122.0,5.6,267.0,99.0,'11111222,11111222,11144222' 
ADCP,ioos:station:wmo:42361:1,2016-12-06T16:30:00Z,27.5500,-92.4900,122.0,3.9,263.0,99.0,'11111222,11111222,11144222' 
ADCP,ioos:station:wmo:42361:1,2016-12-06T17:30:00Z,27.5500,-92.4900,122.0,3.2,259.0,99.0,'11111222,11111222,11144222' 
ADCP,ioos:station:wmo:42361:1,2016-12-06T18:30:00Z,27.5500,-92.4900,122.0,2.9,259.0,99.0,'11111222,11111222,11144222' 
ADCP,ioos:station:wmo:42361:1,2016-12-06T19:30:00Z,27.5500,-92.4900,122.0,3.5,256.0,99.0,'11111222,11111222,11144222' 
ADCP,ioos:station:wmo:42361:1,2016-12-06T20:30:00Z,27.5500,-92.4900,122.0,3.6,249.0,99.0,'11111222,11111222,11144222' 
ADCP,ioos:station:wmo:42361:1,2016-12-06T21:30:00Z,27.5500,-92.4900,122.0,4.1,239.0,99.0,'11111222,11111222,11144222' 
ADCP,ioos:station:wmo:42361:1,2016-12-06T22:30:00Z,27.5500,-92.4900,122.0,4.0,224.0,99.0,'11111222,11111222,11144222' 
ADCP,ioos:station:wmo:42361:1,2016-12-06T23:30:00Z,27.5500,-92.4900,122.0,3.7,248.0,99.0,'11111222,11111222,11144222' 
ADCP,ioos:station:wmo:42361:1,2016-12-07T00:30:00Z,27.5500,-92.4900,122.0,3.3,254.0,99.0,'11111222,11111222,11144222' 
ADCP,ioos:station:wmo:42361:1,2016-12-07T01:30:00Z,27.5500,-92.4900,122.0,2.6,240.0,99.0,'11111222,11111222,11144222' 
ADCP,ioos:station:wmo:42361:1,2016-12-07T02:30:00Z,27.5500,-92.4900,122.0,2.4,250.0,99.0,'11111222,11111222,11144222' 
ADCP,ioos:station:wmo:42361:1,2016-12-07T03:30:00Z,27.5500,-92.4900,122.0,3.0,225.0,99.0,'11111222,11111222,11144222' 
ADCP,ioos:station:wmo:42361:1,2016-12-07T04:30:00Z,27.5500,-92.4900,122.0,3.4,188.0,99.0,'11111222,11111222,11144222' 
ADCP,ioos:station:wmo:42361:1,2016-12-07T05:30:00Z,27.5500,-92.4900,122.0,4.1,191.0,99.0,'11111222,11111222,11144222' 
ADCP,ioos:station:wmo:42361:1,2016-12-07T06:30:00Z,27.5500,-92.4900,122.0,3.8,204.0,99.0,'11111222,11111222,11144222' 
ADCP,ioos:station:wmo:42361:1,2016-12-07T07:30:00Z,27.5500,-92.4900,122.0,2.7,234.0,99.0,'11111222,11111222,11144222' 
ADCP,ioos:station:wmo:42361:1,2016-12-07T08:30:00Z,27.5500,-92.4900,122.0,2.3,220.0,99.0,'11111222,11111222,11144222' 
ADCP,ioos:station:wmo:42361:1,2016-12-07T09:30:00Z,27.5500,-92.4900,122.0,3.5,189.0,99.0,'11111222,11111222,11144222' 
ADCP,ioos:station:wmo:42361:1,2016-12-07T10:30:00Z,27.5500,-92.4900,122.0,2.3,207.0,99.0,'11111222,11111222,11144222' 
ADCP,ioos:station:wmo:42361:1,2016-12-07T11:30:00Z,27.5500,-92.4900,122.0,2.2,212.0,99.0,'11111222,11111222,11144222' 
ADCP,ioos:station:wmo:42361:1,2016-12-07T12:30:00Z,27.5500,-92.4900,122.0,2.7,179.0,99.0,'11111222,11111222,11144222' 
ADCP,ioos:station:wmo:42361:1,2016-12-07T13:30:00Z,27.5500,-92.4900,122.0,3.6,170.0,99.0,'11111222,11111222,11144222' 
ADCP,ioos:station:wmo:42361:1,2016-12-07T14:30:00Z,27.5500,-92.4900,122.0,3.0,179.0,99.0,'11111222,11111222,11144222' 
ADCP,ioos:station:wmo:42361:1,2016-12-07T15:30:00Z,27.5500,-92.4900,122.0,2.9,178.0,99.0,'11111222,11111222,11144222' 
ADCP,ioos:station:wmo:42361:1,2016-12-07T16:30:00Z,27.5500,-92.4900,122.0,3.3,174.0,99.0,'11111222,11111222,11144222' 
ADCP,ioos:station:wmo:42361:1,2016-12-07T17:30:00Z,27.5500,-92.4900,122.0,3.8,158.0,99.0,'11111222,11111222,11144222' 
ADCP,ioos:station:wmo:42361:1,2016-12-07T18:30:00Z,27.5500,-92.4900,122.0,4.4,147.0,99.0,'11111222,11111222,11144222' 
ADCP,ioos:station:wmo:42361:1,2016-12-07T19:30:00Z,27.5500,-92.4900,122.0,4.3,141.0,99.0,'11111222,11111222,11144222' 
ADCP,ioos:station:wmo:42361:1,2016-12-07T20:30:00Z,27.5500,-92.4900,122.0,3.8,147.0,99.0,'11111222,11111222,11144222' 
ADCP,ioos:station:wmo:42361:1,2016-12-07T21:30:00Z,27.5500,-92.4900,122.0,3.3,134.0,99.0,'11111222,11111222,11144222' 
ADCP,ioos:station:wmo:42361:1,2016-12-07T22:30:00Z,27.5500,-92.4900,122.0,3.4,109.0,99.0,'11111222,11111222,11144222' 
ADCP,ioos:station:wmo:42361:1,2016-12-07T23:30:00Z,27.5500,-92.4900,122.0,4.7,91.0,99.0,'11111222,11111222,11144222' 
ADCP,ioos:station:wmo:42361:1,2016-12-08T00:30:00Z,27.5500,-92.4900,122.0,5.5,94.0,99.0,'11111222,11111222,11144222' 
ADCP,ioos:station:wmo:42361:1,2016-12-08T01:30:00Z,27.5500,-92.4900,122.0,5.0,99.0,99.0,'11111222,11111222,11144222' 
ADCP,ioos:station:wmo:42361:1,2016-12-08T02:30:00Z,27.5500,-92.4900,122.0,4.9,96.0,99.0,'11111222,11111222,11144222' 
ADCP,ioos:station:wmo:42361:1,2016-12-08T03:30:00Z,27.5500,-92.4900,122.0,5.2,85.0,99.0,'11111222,11111222,11144222' 
ADCP,ioos:station:wmo:42361:1,2016-12-08T04:30:00Z,27.5500,-92.4900,122.0,5.5,88.0,99.0,'11111222,11111222,11144222' 
ADCP,ioos:station:wmo:42361:1,2016-12-08T05:30:00Z,27.5500,-92.4900,122.0,5.7,88.0,99.0,'11111222,11111222,11144222' 
ADCP,ioos:station:wmo:42361:1,2016-12-08T06:30:00Z,27.5500,-92.4900,122.0,5.6,85.0,99.0,'11111222,11111222,11144222' 
ADCP,ioos:station:wmo:42361:1,2016-12-08T07:30:00Z,27.5500,-92.4900,122.0,5.7,86.0,99.0,'11111222,11111222,11144222' 
ADCP,ioos:station:wmo:42361:1,2016-12-08T08:30:00Z,27.5500,-92.4900,122.0,7.0,79.0,99.0,'11111222,11111222,11144222' 
ADCP,ioos:station:wmo:42361:1,2016-12-08T09:30:00Z,27.5500,-92.4900,122.0,7.8,79.0,99.0,'11111222,11111222,11144222' 
ADCP,ioos:station:wmo:42361:1,2016-12-08T10:30:00Z,27.5500,-92.4900,122.0,9.3,78.0,99.0,'11111222,11111222,11144222' 
ADCP,ioos:station:wmo:42361:1,2016-12-08T11:30:00Z,27.5500,-92.4900,122.0,9.1,79.0,99.0,'11111222,11111222,11144222' 
ADCP,ioos:station:wmo:42361:1,2016-12-08T12:30:00Z,27.5500,-92.4900,122.0,9.9,80.0,99.0,'11111222,11111222,11144222' 
ADCP,ioos:station:wmo:42361:1,2016-12-08T13:30:00Z,27.5500,-92.4900,122.0,10.0,73.0,99.0,'11111222,11111222,11144222' 
ADCP,ioos:station:wmo:42361:1,2016-12-08T14:30:00Z,27.5500,-92.4900,122.0,10.2,63.0,99.0,'11111222,11111222,11144222' 
ADCP,ioos:station:wmo:42361:1,2016-12-08T15:30:00Z,27.5500,-92.4900,122.0,11.2,51.0,99.0,'11111222,11111222,11144222' 
ADCP,ioos:station:wmo:42361:1,2016-12-08T16:30:00Z,27.5500,-92.4900,122.0,14.0,32.0,99.0,'11111222,11111222,11144222' 
ADCP,ioos:station:wmo:42361:1,2016-12-08T17:30:00Z,27.5500,-92.4900,122.0,18.5,12.0,99.0,'11111222,11111222,11144222' 
ADCP,ioos:station:wmo:42361:1,2016-12-08T18:30:00Z,27.5500,-92.4900,122.0,18.5,12.0,99.0,'11111222,11111222,11144222' 
ADCP,ioos:station:wmo:42361:1,2016-12-08T19:30:00Z,27.5500,-92.4900,122.0,18.0,15.0,99.0,'11111222,11111222,11144222' 
ADCP,ioos:station:wmo:42361:1,2016-12-08T20:30:00Z,27.5500,-92.4900,122.0,19.0,12.0,99.0,'11111222,11111222,11144222' 
ADCP,ioos:station:wmo:42361:1,2016-12-08T21:30:00Z,27.5500,-92.4900,122.0,19.0,13.0,99.0,'11111222,11111222,11144222' 
ADCP,ioos:station:wmo:42361:1,2016-12-08T22:30:00Z,27.5500,-92.4900,122.0,18.8,12.0,99.0,'11111222,11111222,11144222' 
ADCP,ioos:station:wmo:42361:1,2016-12-08T23:30:00Z,27.5500,-92.4900,122.0,18.7,11.0,99.0,'11111222,11111222,11144222' 
ADCP,ioos:station:wmo:42361:1,2016-12-09T00:30:00Z,27.5500,-92.4900,122.0,19.0,12.0,99.0,'11111222,11111222,11144222' 
ADCP,ioos:station:wmo:42361:1,2016-12-09T01:30:00Z,27.5500,-92.4900,122.0,19.3,12.0,99.0,'11111222,11111222,11144222' 
ADCP,ioos:station:wmo:42361:1,2016-12-09T02:30:00Z,27.5500,-92.4900,122.0,19.5,15.0,99.0,'11111222,11111222,11144222' 
ADCP,ioos:station:wmo:42361:1,2016-12-09T03:30:00Z,27.5500,-92.4900,122.0,18.6,16.0,99.0,'11111222,11111222,11144222' 
ADCP,ioos:station:wmo:42361:1,2016-12-09T04:30:00Z,27.5500,-92.4900,122.0,17.9,13.0,99.0,'11111222,11111222,11144222' 
ADCP,ioos:station:wmo:42361:1,2016-12-09T05:30:00Z,27.5500,-92.4900,122.0,17.1,12.0,99.0,'11111222,11111222,11144222' 
ADCP,ioos:station:wmo:42361:1,2016-12-09T06:30:00Z,27.5500,-92.4900,122.0,17.0,10.0,99.0,'11111222,11111222,11144222' 
ADCP,ioos:station:wmo:42361:1,2016-12-09T07:30:00Z,27.5500,-92.4900,122.0,16.9,9.0,99.0,'11111222,11111222,11144222' 